x

8779748 - South Padre Island Cgs, Tx (pcgt2) Weather Station

12:18am - Tue 30th May 2017 All times are CDT. -5 hours from GMT.

  • Wind
    7mph, 8mph gusts
  • Air Temp 79°f
  • Sea Pressure 1015.5mb
  • 8779748 - South Padre Island Cgs, Tx
  • 8779748 - South Padre Island Cgs, Tx

More Historic Weather Station data

Upgrade to MSW Pro to gain access to the past 30 days of data for over 8000 Wavebouys and Weather Stations around the globe.

Join Pro

Comparision Forecast

View Surf forecast
   
Tue 05/30 12:18am 7 8 mph 1015.5mb 79f
12:12am 6 7 mph 1015.6mb 79f
12:06am 5 8 mph 1015.7mb 79f
12:00am 3 7 mph 1015.7mb 79f
Mon 05/29 11:54pm 3 7 mph 1015.8mb 79f
11:48pm 3 6 mph 1015.9mb 79f
11:42pm 3 8 mph 1016.1mb 79f
11:36pm 7 10 mph 1016mb 79f
11:30pm 6 8 mph 1016.1mb 79f
11:24pm 7 8 mph 1016.2mb 79f
11:18pm 6 8 mph 1016.2mb 79f
11:12pm 7 10 mph 1016.2mb 79f
11:06pm 6 9 mph 1016.2mb 79f
11:00pm 5 10 mph 1016mb 79f
10:54pm 6 8 mph 1015.8mb 79f
10:48pm 5 8 mph 1015.7mb 79f
10:42pm 5 8 mph 1015.5mb 79f
10:36pm 3 8 mph 1015.4mb 79f
10:30pm 3 6 mph 1015.4mb 79f
10:24pm 2 8 mph 1015.3mb 79f
10:18pm 5 6 mph 1015.1mb 79f
10:12pm 5 6 mph 1015mb 79f
10:06pm 2 6 mph 1015mb 79f
10:00pm 2 5 mph 1015mb 79f
9:54pm 3 6 mph 1015mb 79f
9:48pm 5 7 mph 1015mb 79f
9:42pm 3 6 mph 1015mb 79f
9:36pm 3 6 mph 1015mb 79f
9:30pm 2 5 mph 1014.9mb 79f
9:24pm 3 5 mph 1014.8mb 79f
9:18pm 2 5 mph 1014.7mb 79f
9:12pm 3 5 mph 1014.7mb 79f
9:06pm 2 5 mph 1014.6mb 79f
9:00pm 3 5 mph 1014.5mb 79f
8:48pm 3 3 mph 1014.3mb 79f
8:42pm 1 2 mph 1014.2mb 80f
8:36pm 2 3 mph 1014.1mb 80f
8:30pm 2 5 mph 1014mb 80f
8:24pm 2 3 mph 1013.8mb 80f
8:18pm 3 5 mph 1013.7mb 80f
8:12pm 2 3 mph 1013.8mb 80f
8:06pm 2 3 mph 1013.7mb 80f
8:00pm 1 3 mph 1013.6mb 80f
7:48pm 3 5 mph 1013.6mb 80f
7:42pm 3 5 mph 1013.6mb 80f
7:36pm 2 6 mph 1013.6mb 80f
7:30pm 3 5 mph 1013.6mb 80f
7:24pm 2 6 mph 1013.6mb 80f
7:18pm 5 7 mph 1013.7mb 80f
7:12pm 5 7 mph 1013.8mb 80f
7:06pm 6 8 mph 1013.8mb 80f
7:00pm 6 9 mph 1013.8mb 80f
6:54pm 7 9 mph 1013.9mb 80f
6:48pm 8 10 mph 1013.9mb 80f
6:42pm 9 11 mph 1014mb 80f
6:36pm 10 11 mph 1014mb 80f
6:30pm 10 10 mph 1014.2mb 80f
6:24pm 9 11 mph 1014.4mb 80f
6:18pm 8 10 mph 1014.4mb 81f
6:12pm 9 11 mph 1014.5mb 80f
6:06pm 8 13 mph 1014.6mb 81f
6:00pm 10 11 mph 1014.5mb 80f
5:54pm 9 13 mph 1014.6mb 80f
5:48pm 8 14 mph 1014.8mb 80f
5:42pm 11 14 mph 1014.6mb 80f
5:36pm 11 14 mph 1014.7mb 80f
5:30pm 11 14 mph 1014.9mb 80f
5:24pm 13 14 mph 1014.8mb 80f
5:18pm 10 14 mph 1014.9mb 80f
5:12pm 10 13 mph 1015mb 80f
5:06pm 10 14 mph 1015.1mb 80f
5:00pm 10 14 mph 1015.1mb 80f
4:54pm 13 16 mph 1015.1mb 80f
4:48pm 11 15 mph 1015mb 80f
4:42pm 11 15 mph 1015mb 80f
4:36pm 10 14 mph 1014.9mb 81f
4:30pm 11 14 mph 1014.9mb 80f
4:24pm 14 15 mph 1014.7mb 80f
4:18pm 13 16 mph 1014.8mb 80f
4:12pm 13 15 mph 1014.7mb 80f
4:06pm 14 16 mph 1014.8mb 80f
4:00pm 13 14 mph 1014.7mb 80f
3:54pm 14 16 mph 1014.6mb 79f
3:48pm 14 16 mph 1014.6mb 80f
3:42pm 15 17 mph 1014.2mb 79f
3:36pm 14 17 mph 1014mb 79f
3:30pm 13 16 mph 1013.9mb 80f
3:24pm 13 15 mph 1014.2mb 80f
3:18pm 10 14 mph 1014.3mb 80f
3:12pm 10 14 mph 1014.2mb 80f
3:06pm 10 13 mph 1014.2mb 80f
3:00pm 9 11 mph 1013.9mb 80f
2:54pm 9 11 mph 1013.9mb 80f
2:48pm 8 13 mph 1013.9mb 81f
2:42pm 9 11 mph 1013.9mb 81f
2:36pm 8 14 mph 1014mb 81f
2:30pm 9 13 mph 1014mb 81f
2:24pm 9 14 mph 1014.1mb 81f
2:18pm 9 13 mph 1014.3mb 81f
2:12pm 9 15 mph 1014.4mb 80f
2:06pm 10 16 mph 1014.4mb 81f
2:00pm 13 15 mph 1014.5mb 80f
1:54pm 8 16 mph 1014.6mb 80f
1:48pm 13 16 mph 1014.7mb 79f
1:42pm 11 16 mph 1014.7mb 80f
1:36pm 11 16 mph 1014.8mb 80f
1:30pm 10 18 mph 1014.8mb 80f
1:24pm 13 17 mph 1014.8mb 80f
1:18pm 10 18 mph 1015mb 80f
1:12pm 13 18 mph 1015mb 80f
1:06pm 11 16 mph 1015mb 81f
1:00pm 11 18 mph 1015mb 81f
12:54pm 7 15 mph 1014.9mb 81f
12:48pm 11 18 mph 1014.8mb 80f
12:42pm 10 14 mph 1014.8mb 80f
12:36pm 7 16 mph 1014.8mb 81f
12:30pm 10 15 mph 1014.6mb 80f
12:24pm 8 14 mph 1014.4mb 81f
12:18pm 9 15 mph 1014.3mb 81f
12:12pm 10 16 mph 1014.4mb 80f
12:06pm 9 14 mph 1014.4mb 81f
12:00pm 9 14 mph 1014.4mb 81f
11:54am 7 14 mph 1014.5mb 81f
11:48am 8 14 mph 1014.5mb 81f
11:42am 8 14 mph 1014.5mb 81f
11:36am 8 15 mph 1014.5mb 80f
11:30am 7 11 mph 1014.4mb 81f
11:24am 7 11 mph 1014.4mb 81f
11:18am 7 11 mph 1014.4mb 81f
11:12am 7 13 mph 1014.6mb 80f
11:06am 8 13 mph 1014.6mb 80f
11:00am 8 15 mph 1014.6mb 79f
10:54am 8 14 mph 1014.6mb 79f
10:48am 11 20 mph 1014.8mb 79f
10:42am 14 20 mph 1014.7mb 79f
10:36am 15 21 mph 1014.8mb 78f
10:30am 16 21 mph 1015mb 78f
10:24am 14 20 mph 1015mb 78f
10:18am 15 22 mph 1015.1mb 78f
10:12am 18 24 mph 1015.1mb 78f
10:06am 16 23 mph 1015mb 77f
10:00am 22 26 mph 1014.9mb 77f
9:54am 21 26 mph 1015mb 77f
9:48am 17 29 mph 1015.1mb 77f
9:42am 18 25 mph 1015.5mb 77f
9:36am 21 29 mph 1015.6mb 77f
9:30am 18 25 mph 1015.8mb 78f
9:24am 18 24 mph 1015.9mb 77f
9:18am 15 24 mph 1016mb 77f
9:12am 14 22 mph 1015.9mb 77f
9:06am 11 22 mph 1015.9mb 77f
9:00am 13 21 mph 1015.8mb 77f
8:54am 13 21 mph 1015.7mb 76f
8:48am 9 17 mph 1015.3mb 76f
8:42am 11 17 mph 1015.1mb 76f
8:36am 11 17 mph 1015mb 76f
8:30am 11 16 mph 1015mb 76f
8:24am 10 16 mph 1014.9mb 76f
8:18am 9 14 mph 1015mb 76f
8:12am 10 15 mph 1014.9mb 76f
8:06am 8 14 mph 1014.7mb 76f
8:00am 8 17 mph 1014.5mb 75f
7:54am 10 18 mph 1014.3mb 75f
7:48am 11 20 mph 1013.8mb 76f
7:42am 8 16 mph 1014.1mb 75f
7:36am 13 18 mph 1014mb 75f
7:30am 10 17 mph 1014.1mb 75f
7:24am 10 22 mph 1014.6mb 74f
7:18am 17 28 mph 1014.7mb 74f
7:12am 9 16 mph 1015.1mb 73f
7:06am 11 22 mph 1015mb 74f
7:00am 13 22 mph 1014.8mb 73f
6:54am 13 20 mph 1014.8mb 73f
6:48am 15 22 mph 1014.8mb 73f
6:42am 16 22 mph 1014.7mb 73f
6:36am 13 23 mph 1014.7mb 73f
6:30am 14 22 mph 1014.6mb 73f
6:24am 14 21 mph 1014.4mb 73f
6:18am 14 23 mph 1014.5mb 73f
6:12am 17 24 mph 1014.5mb 73f
6:06am 21 30 mph 1014.3mb 73f
6:00am 21 30 mph 1014.1mb 74f
5:54am 22 31 mph 1014.1mb 73f
5:48am 22 33 mph 1014mb 73f
5:42am 26 39 mph 1013.9mb 72f
5:36am 29 36 mph 1013.9mb 71f
5:30am 30 37 mph 1014.1mb 71f
5:24am 29 34 mph 1014.4mb 71f
5:18am 24 31 mph 1014.8mb 71f
5:12am 29 34 mph 1014.7mb 71f
5:06am 30 36 mph 1014.4mb 71f
5:00am 26 34 mph 1014.4mb 71f
4:54am 29 36 mph 1014.1mb 71f
4:48am 31 39 mph 1014.2mb 71f
4:42am 33 41 mph 1014.1mb 71f
4:36am 25 33 mph 1013.7mb 72f
4:30am 25 33 mph 1014.4mb 71f
4:24am 26 34 mph 1014.1mb 70f
4:18am 25 36 mph 1013.5mb 70f
4:12am 30 37 mph 1013.8mb 69f
4:06am 26 34 mph 1013.7mb 73f
4:00am 28 32 mph 1013.2mb 75f
3:54am 7 10 mph 1013mb 82f
3:48am 9 14 mph 1012.6mb 83f
3:42am 11 14 mph 1012.1mb 82f
3:36am 10 14 mph 1011.9mb 82f
3:30am 11 13 mph 1012.1mb 82f
3:24am 9 13 mph 1012.4mb 82f
3:18am 10 14 mph 1012.4mb 82f
3:12am 13 16 mph 1012.4mb 82f
3:06am 13 15 mph 1012.1mb 82f
3:00am 13 17 mph 1012mb 82f
2:54am 15 17 mph 1011.7mb 82f
2:48am 14 16 mph - 82f
2:42am 13 16 mph - 82f
2:36am 11 15 mph - 82f
2:30am 14 15 mph 1012.2mb 82f
2:24am 14 16 mph 1012.3mb 82f
2:18am 13 16 mph 1012.4mb 82f
2:12am 14 15 mph 1012.3mb 82f
2:06am 11 15 mph 1012.3mb 82f
2:00am 14 16 mph 1012.1mb 82f
1:54am 14 16 mph 1012.1mb 82f
1:48am 14 18 mph 1012.3mb -
1:42am 15 17 mph 1012.3mb -
1:36am 14 17 mph 1012.4mb -
1:30am 15 17 mph 1012.4mb 82f
1:24am 15 17 mph 1012.6mb 82f
1:18am 15 17 mph 1012.8mb 82f
1:12am 16 18 mph 1012.9mb 82f
1:06am 15 17 mph 1012.8mb 82f
1:00am 14 18 mph 1012.5mb 82f
12:54am 15 18 mph 1012.2mb 82f
12:48am 16 18 mph 1012.1mb -
12:42am 16 18 mph 1012.1mb -
12:36am 14 18 mph 1012.2mb -
12:30am 15 18 mph 1012.2mb 82f
12:24am 15 18 mph 1012.4mb 82f
12:18am 16 20 mph 1012.5mb 82f
12:12am 14 16 mph 1012.6mb 82f
12:06am 14 17 mph 1012.7mb 82f
12:00am 15 18 mph 1012.4mb 82f
Sun 05/28 11:54pm 15 18 mph 1012.5mb 82f
11:48pm 15 20 mph 1012.3mb 82f
11:42pm 16 20 mph 1012.1mb 82f
11:36pm 16 20 mph 1012.1mb 82f
11:30pm 15 18 mph 1012mb 82f
11:24pm 15 18 mph 1012.1mb 82f
11:18pm 16 18 mph 1012mb 82f
11:12pm 15 20 mph 1012.2mb 82f
11:06pm 17 20 mph 1012.1mb 82f
11:00pm 15 20 mph 1012mb 82f
10:54pm 16 18 mph 1011.7mb 82f
10:48pm 15 18 mph 1011.6mb 82f
10:42pm 15 20 mph 1011.5mb 82f
10:36pm 16 20 mph 1011.5mb 82f
10:30pm 16 20 mph 1011.2mb 82f
10:24pm 16 18 mph 1011.1mb 82f
10:18pm 17 20 mph 1011mb 82f
10:12pm 18 22 mph 1010.9mb 82f
10:06pm 16 20 mph 1011mb 82f
10:00pm 16 20 mph 1010.8mb 82f
9:54pm 17 21 mph 1010.7mb 82f
9:48pm 17 21 mph 1010.8mb 82f
9:42pm 17 21 mph 1010.5mb 82f
9:36pm 17 21 mph 1010.4mb 82f
9:30pm 18 22 mph 1010.1mb 82f
9:24pm 20 23 mph 1009.7mb 82f
9:18pm 18 23 mph 1009.6mb 82f
9:12pm 18 22 mph 1009.7mb 82f
9:06pm 17 23 mph 1009.7mb 82f
9:00pm 17 23 mph 1009.6mb 82f
8:54pm 21 24 mph 1009.4mb 82f
8:48pm 20 24 mph 1009.3mb 82f
8:42pm 21 24 mph 1009.4mb 82f
8:36pm 17 23 mph 1009.5mb 82f
8:30pm 20 24 mph 1009.5mb 82f
8:24pm 18 23 mph 1009.6mb 82f
8:18pm 20 24 mph 1009.5mb 82f
8:12pm 20 25 mph 1009.4mb 82f
8:06pm 20 24 mph 1009.3mb 82f
8:00pm 21 25 mph 1009.1mb 82f
7:54pm 18 26 mph 1009mb 82f
7:48pm 18 23 mph 1009mb 82f
7:42pm 18 24 mph 1008.9mb 82f
7:36pm 22 26 mph 1008.8mb 82f
7:30pm 18 24 mph 1008.7mb 82f
7:24pm 18 25 mph 1008.7mb 82f
7:18pm 17 24 mph 1008.9mb 82f
7:12pm 17 23 mph 1008.9mb 82f
7:06pm 18 25 mph 1009mb 82f
7:00pm 20 23 mph 1009.2mb 82f
6:54pm 17 22 mph 1009.2mb 82f
6:48pm 16 23 mph 1009.4mb 82f
6:42pm 16 22 mph 1009.5mb 82f
6:36pm 18 23 mph 1009.5mb 82f
6:30pm 18 23 mph 1009.6mb 83f
6:24pm 18 23 mph 1009.7mb 83f
6:18pm 18 22 mph 1009.8mb 83f
6:12pm 16 22 mph 1009.9mb 83f
6:06pm 16 22 mph 1010mb 83f
6:00pm 17 22 mph 1010.1mb 83f
5:54pm 15 21 mph 1010.2mb 83f
5:48pm 16 23 mph 1010.2mb 83f
5:42pm 17 22 mph 1010.3mb 83f
5:36pm 17 21 mph 1010.4mb 83f
5:30pm 15 22 mph 1010.6mb 83f
5:24pm 15 22 mph 1010.7mb 83f
5:18pm 14 21 mph 1010.7mb 83f
5:12pm 16 22 mph 1010.7mb 83f
5:06pm 15 20 mph 1010.7mb 83f
5:00pm 15 21 mph 1010.7mb 83f
4:54pm 16 21 mph 1010.8mb 83f
4:48pm 16 22 mph 1010.8mb 83f
4:42pm 16 21 mph 1010.7mb 83f
4:36pm 18 22 mph 1010.7mb 83f
4:30pm 17 21 mph 1010.8mb 83f
4:24pm 16 21 mph 1010.8mb 83f
4:18pm 17 21 mph 1010.8mb 83f
4:12pm 16 20 mph 1010.9mb 83f
4:06pm 17 20 mph 1010.9mb 83f
4:00pm 17 21 mph 1011.1mb 83f
3:54pm 16 20 mph 1011.2mb 83f
3:48pm 16 21 mph 1011.3mb 83f
3:42pm 15 21 mph 1011.3mb 83f
3:36pm 16 18 mph 1011.3mb 83f
3:30pm 14 18 mph 1011.4mb 83f
3:24pm 15 20 mph 1011.4mb 83f
3:18pm 16 18 mph 1011.4mb 83f
3:12pm 16 20 mph 1011.4mb 83f
3:06pm 17 20 mph 1011.4mb 83f
3:00pm 16 20 mph 1011.6mb 83f
2:54pm 16 18 mph 1011.6mb 83f
2:48pm 17 21 mph 1011.6mb 83f
2:42pm 16 21 mph 1011.6mb 83f
2:36pm 18 21 mph 1011.6mb 83f
2:30pm 17 21 mph 1011.6mb 83f
2:24pm 15 20 mph 1011.7mb 83f
2:18pm 15 20 mph 1011.7mb 83f
2:12pm 15 21 mph 1011.6mb 83f
2:06pm 16 21 mph 1011.6mb 83f
2:00pm 17 22 mph 1011.6mb 83f
1:54pm 18 21 mph 1011.6mb 83f
1:48pm 17 21 mph 1011.7mb 83f
1:42pm 17 20 mph 1011.6mb 83f
1:36pm 16 20 mph 1011.6mb 83f
1:30pm 15 21 mph 1011.6mb 83f
1:24pm 17 21 mph 1011.7mb 83f
1:18pm 16 20 mph 1011.7mb 83f
1:12pm 16 21 mph 1011.7mb 83f
1:06pm 15 18 mph 1011.8mb 83f
1:00pm 16 20 mph 1011.9mb 83f
12:54pm 17 20 mph 1011.9mb 83f
12:48pm 16 20 mph 1011.9mb 83f
12:42pm 16 20 mph 1011.9mb 83f
12:36pm 16 18 mph 1011.9mb 83f
12:30pm 16 20 mph 1011.9mb 83f
12:24pm 16 20 mph 1011.9mb 83f
12:18pm 15 18 mph 1011.9mb 83f
12:12pm 17 21 mph 1011.8mb 83f
12:06pm 15 22 mph 1011.9mb 83f
12:00pm 16 21 mph 1011.9mb 83f
11:54am 16 20 mph 1011.9mb 83f
11:48am 16 22 mph 1011.9mb 83f
11:42am 16 22 mph 1011.9mb 83f
11:36am 16 20 mph 1011.8mb 82f
11:30am 17 22 mph 1011.8mb 83f
11:24am 17 21 mph 1011.8mb 83f
11:18am 17 22 mph 1011.8mb 83f
11:12am 18 22 mph 1011.8mb 83f
11:06am 16 20 mph 1011.8mb 83f
11:00am 16 21 mph 1011.8mb 83f
10:54am 16 21 mph 1011.7mb 83f
10:48am 16 20 mph 1011.6mb 83f
10:42am 15 22 mph 1011.6mb 83f
10:36am 15 21 mph 1011.6mb 83f
10:30am 16 20 mph 1011.3mb 83f
10:24am 17 21 mph 1011.2mb 83f
10:18am 17 22 mph 1011.1mb 83f
10:12am 17 23 mph 1011mb 83f
10:06am 16 21 mph 1011mb 83f
10:00am 16 22 mph 1011.1mb 83f
9:54am 18 22 mph 1011mb 83f
9:48am 17 21 mph 1011mb 83f
9:42am 17 23 mph 1011mb 83f
9:36am 18 22 mph 1011mb 83f
9:30am 20 24 mph 1010.9mb 83f
9:24am 23 28 mph 1010.8mb 83f
9:18am 22 29 mph 1010.6mb 83f
9:12am 23 28 mph 1010.6mb 83f
9:06am 21 26 mph 1010.5mb 83f
9:00am 24 28 mph 1010.3mb 83f
8:54am 23 28 mph 1010.3mb 83f
8:48am 21 24 mph 1010.2mb 83f
8:42am 22 26 mph 1010.2mb 83f
8:36am 21 28 mph 1010.2mb 83f
8:30am 23 26 mph 1010.1mb 83f
8:24am 24 28 mph 1010mb 83f
8:18am 20 24 mph 1009.9mb 83f
8:12am 21 25 mph 1009.9mb 83f
8:06am 20 24 mph 1009.9mb 83f
8:00am 20 23 mph 1010mb 83f
7:54am 21 24 mph 1010mb 82f
7:48am 20 24 mph 1009.9mb 82f
7:42am 20 23 mph 1009.9mb 82f
7:36am 18 23 mph 1009.9mb 82f
7:30am 20 23 mph 1010mb 82f
7:24am 16 20 mph 1010mb 82f
7:18am 16 21 mph 1010mb 82f
7:12am 16 22 mph 1009.9mb 82f
7:06am 16 20 mph 1009.8mb 82f
7:00am 15 17 mph 1009.9mb 82f
6:54am 16 21 mph 1009.8mb 82f
6:48am 16 18 mph 1009.7mb 82f
6:42am 15 20 mph 1009.7mb 82f
6:36am 17 21 mph 1009.7mb 82f
6:30am 16 20 mph 1009.8mb 82f
6:24am 16 21 mph 1009.8mb 82f
6:18am 17 22 mph 1009.8mb 82f
6:12am 17 22 mph 1009.9mb 82f
6:06am 14 16 mph 1009.9mb 82f
6:00am 15 24 mph 1009.8mb 82f
5:54am 15 20 mph 1009.7mb 82f
5:48am 16 21 mph 1009.5mb 82f
5:42am 17 21 mph 1009.6mb 82f
5:36am 14 20 mph 1009.6mb 82f
5:30am 16 22 mph 1009.6mb 82f
5:24am 17 22 mph 1009.6mb 82f
5:18am 17 21 mph 1009.8mb 82f
5:12am 16 21 mph 1010mb 82f
5:06am 17 23 mph 1010mb 82f
5:00am 18 22 mph 1010mb 82f
4:54am 17 21 mph 1010.1mb 82f
4:48am 15 20 mph 1010mb 82f
4:42am 16 21 mph 1010.1mb 82f
4:36am 14 18 mph 1010.1mb 82f
4:30am 18 21 mph 1010.1mb 82f
4:24am 16 21 mph 1010.1mb 82f
4:18am 17 22 mph 1010.1mb 82f
4:12am 15 21 mph 1010.1mb 82f
4:06am 16 22 mph 1010.2mb 82f
4:00am 17 22 mph 1010.2mb 82f
3:54am 18 22 mph 1010.1mb 82f
3:48am 18 22 mph 1010.2mb 82f
3:42am 18 23 mph 1010.2mb 82f
3:36am 21 23 mph 1010.3mb 82f
3:30am 18 21 mph 1010.4mb 82f
3:24am 16 22 mph 1010.5mb 82f
3:18am 20 23 mph 1010.5mb 82f
3:12am 20 22 mph 1010.5mb 82f
3:06am 17 22 mph 1010.6mb 82f
3:00am 16 21 mph 1010.7mb 82f
2:54am 18 22 mph 1010.7mb 82f
2:48am 17 24 mph 1010.8mb 82f
2:42am 18 22 mph 1010.8mb 82f
2:36am 18 24 mph 1010.9mb 82f
2:30am 22 25 mph 1011mb 82f
2:24am 20 25 mph 1011mb 82f
2:18am 20 25 mph 1011.2mb 82f
2:12am 18 23 mph 1011.4mb 82f
2:06am 18 23 mph 1011.5mb 82f
2:00am 18 22 mph 1011.5mb 82f
1:54am 17 22 mph 1011.7mb 82f
1:48am 17 21 mph 1011.7mb 82f
1:42am 18 21 mph 1011.8mb 82f
1:36am 18 21 mph 1011.9mb 82f
1:30am 17 22 mph 1012mb 82f
1:24am 18 22 mph 1012mb 82f
1:18am 14 17 mph 1012mb 82f
1:12am 15 20 mph 1012.1mb 82f
1:06am 15 22 mph 1011.9mb 82f
1:00am 15 20 mph 1011.9mb 82f
12:54am 17 22 mph 1011.9mb 82f
12:48am 17 22 mph 1011.9mb 82f
12:42am 18 22 mph 1012mb 82f
12:36am 17 23 mph 1012.1mb 82f
12:30am 17 22 mph 1012.1mb 82f
12:24am 17 21 mph 1012.1mb 82f
12:18am 15 18 mph 1012.1mb 82f
12:12am 15 21 mph 1012.1mb 82f
12:06am 17 22 mph 1012.1mb 82f
12:00am 18 21 mph 1012.1mb 82f
Sat 05/27 11:54pm 14 18 mph 1012.1mb 82f
11:48pm 14 16 mph 1012.1mb 82f
11:42pm 15 17 mph 1012.2mb 82f
11:36pm 14 16 mph 1012.1mb 82f
11:30pm 14 16 mph 1012mb 82f
11:24pm 14 18 mph 1012.1mb 82f
11:18pm 14 17 mph 1012.1mb 82f
11:12pm 15 18 mph 1012.1mb 82f
11:06pm 15 18 mph 1012.2mb 82f
11:00pm 14 18 mph 1012.1mb 82f
10:54pm 14 16 mph 1012mb 82f
10:48pm 14 17 mph 1012mb 82f
10:42pm 16 20 mph 1011.9mb 82f
10:36pm 18 23 mph 1011.8mb 82f
10:30pm 16 21 mph 1011.8mb 82f
10:24pm 17 22 mph 1011.7mb 82f
10:18pm 16 20 mph 1011.7mb 82f
10:12pm 17 20 mph 1011.6mb 82f
10:06pm 17 21 mph 1011.7mb 82f
10:00pm 15 18 mph 1011.7mb 82f
9:54pm 15 18 mph 1011.7mb 82f
9:48pm 16 17 mph 1011.7mb 82f
9:42pm 14 17 mph 1011.7mb 82f
9:36pm 14 15 mph 1011.7mb 82f
9:30pm 14 16 mph 1011.6mb 82f
9:24pm 13 16 mph 1011.5mb 82f
9:18pm 11 14 mph 1011.5mb 82f
9:12pm 11 16 mph 1011.3mb 82f
9:06pm 14 17 mph 1011mb 82f
9:00pm 14 17 mph 1010.9mb 82f
8:54pm 14 17 mph 1010.9mb 82f
8:48pm 16 18 mph 1010.7mb 82f
8:42pm 14 20 mph 1010.4mb 82f
8:36pm 15 21 mph 1010.4mb 82f
8:30pm 15 21 mph 1010.3mb 82f
8:24pm 16 20 mph 1010.1mb 82f
8:18pm 16 21 mph 1010.1mb 82f
8:12pm 17 21 mph 1010.1mb 82f
8:06pm 16 20 mph 1010.1mb 82f
8:00pm 17 22 mph 1010.1mb 82f
7:54pm 18 21 mph 1010mb 82f
7:48pm 18 22 mph 1009.9mb 82f
7:42pm 18 22 mph 1009.8mb 82f
7:36pm 16 22 mph 1009.8mb 82f
7:30pm 17 20 mph 1009.6mb 82f
7:24pm 18 22 mph 1009.6mb 82f
7:18pm 17 22 mph 1009.5mb 82f
7:12pm 20 25 mph 1009.5mb 82f
7:06pm 18 23 mph 1009.5mb 82f
7:00pm 20 24 mph 1009.5mb 82f
6:54pm 18 24 mph 1009.6mb 82f
6:48pm 20 25 mph 1009.7mb 82f
6:42pm 20 24 mph 1009.7mb 82f
6:36pm 21 24 mph 1009.7mb 82f
6:30pm 22 25 mph 1009.7mb 82f
6:24pm 18 24 mph 1009.7mb 82f
6:18pm 20 24 mph 1009.8mb 82f
6:12pm 20 24 mph 1009.9mb 82f
6:06pm 21 24 mph 1009.9mb 82f
6:00pm 20 23 mph 1009.9mb 82f
5:54pm 20 24 mph 1009.9mb 83f
5:48pm 18 23 mph 1010mb 83f
5:42pm 17 23 mph 1010mb 83f
5:36pm 20 23 mph 1010mb 83f
5:30pm 17 22 mph 1010mb 83f
5:24pm 20 23 mph 1010.1mb 83f
5:18pm 17 24 mph 1010.1mb 83f
5:12pm 18 23 mph 1010.1mb 83f
5:06pm 20 24 mph 1010.1mb 82f
5:00pm 20 23 mph 1010.2mb 82f
4:54pm 20 23 mph 1010.3mb 83f
4:48pm 18 23 mph 1010.4mb 83f
4:42pm 20 23 mph 1010.4mb 83f
4:36pm 20 23 mph 1010.4mb 83f
4:30pm 20 23 mph 1010.5mb 83f
4:24pm 18 23 mph 1010.6mb 83f
4:18pm 17 24 mph 1010.6mb 83f
4:12pm 20 23 mph 1010.7mb 83f
4:06pm 18 23 mph 1010.8mb 82f
4:00pm 20 24 mph 1010.8mb 82f
3:54pm 20 24 mph 1010.9mb 82f
3:48pm 20 23 mph 1010.9mb 82f
3:42pm 21 23 mph 1011mb 82f
3:36pm 17 22 mph 1011.2mb 83f
3:30pm 20 23 mph 1011.2mb 83f
3:24pm 18 24 mph 1011.3mb 83f
3:18pm 21 23 mph 1011.3mb 82f
3:12pm 21 24 mph 1011.3mb 82f
3:06pm 20 24 mph 1011.4mb 83f
3:00pm 18 23 mph 1011.6mb 83f
2:54pm 17 22 mph 1011.7mb 83f
2:48pm 20 22 mph 1011.7mb 83f
2:42pm 17 21 mph 1011.8mb 83f
2:36pm 17 21 mph 1011.8mb 83f
2:30pm 18 21 mph 1011.9mb 83f
2:24pm 18 22 mph 1012mb 83f
2:18pm 17 22 mph 1012.1mb 83f
2:12pm 18 21 mph 1012.1mb 83f
2:06pm 17 21 mph 1012.2mb 83f
2:00pm 17 21 mph 1012.2mb 83f
1:54pm 16 20 mph 1012.3mb 83f
1:48pm 17 20 mph 1012.4mb 83f
1:42pm 17 21 mph 1012.5mb 83f
1:36pm 16 21 mph 1012.5mb 82f
1:30pm 16 21 mph 1012.6mb 83f
1:24pm 17 20 mph 1012.7mb 83f
1:18pm 15 20 mph 1012.7mb 82f
1:12pm 15 18 mph 1012.7mb 82f
1:06pm 16 18 mph 1012.8mb 82f
1:00pm 15 20 mph 1012.9mb 83f
12:54pm 16 18 mph 1012.9mb 83f
12:48pm 14 18 mph 1012.9mb 83f
12:42pm 14 17 mph 1012.9mb 82f
12:36pm 16 20 mph 1013mb 82f
12:30pm 16 20 mph 1013mb 82f
12:24pm 16 20 mph 1012.9mb 82f
12:18pm 16 22 mph 1012.9mb 82f
12:12pm 17 22 mph 1012.9mb 82f
12:06pm 18 23 mph 1012.9mb 82f
12:00pm 18 22 mph 1012.9mb 82f
11:54am 18 23 mph 1013mb 82f
11:48am 18 23 mph 1013mb 82f
11:42am 20 23 mph 1013mb 82f
11:36am 18 24 mph 1013mb 83f
11:30am 20 24 mph 1013mb 83f
11:24am 20 24 mph 1013.1mb 82f
11:18am 18 24 mph 1013.1mb 82f
11:12am 17 22 mph 1013.1mb 82f
11:06am 18 23 mph 1013.2mb 82f
11:00am 18 23 mph 1013.3mb 83f
10:54am 18 22 mph 1013.3mb 82f
10:48am 21 24 mph 1013.3mb 82f
10:42am 18 24 mph 1013.4mb 82f
10:36am 20 24 mph 1013.4mb 82f
10:30am 20 25 mph 1013.4mb 82f
10:24am 22 25 mph 1013.4mb 82f
10:18am 22 25 mph 1013.4mb 82f
10:12am 21 24 mph 1013.4mb 82f
10:06am 20 24 mph 1013.4mb 82f
10:00am 21 23 mph 1013.6mb 82f
9:54am 21 24 mph 1013.5mb 82f
9:48am 17 22 mph 1013.5mb 82f
9:42am 18 24 mph 1013.4mb 82f
9:36am 20 23 mph 1013.4mb 82f
9:30am 22 26 mph 1013.4mb 82f
9:24am 20 23 mph 1013.3mb 82f
9:18am 20 24 mph 1013.3mb 82f
9:12am 18 23 mph 1013.3mb 82f
9:06am 21 23 mph 1013.2mb 81f
9:00am 20 23 mph 1013.1mb 82f
8:54am 18 22 mph 1013.1mb 82f
8:48am 17 21 mph 1013mb 81f
8:42am 18 22 mph 1012.9mb 81f
8:36am 17 20 mph 1012.8mb 81f
8:30am 16 20 mph 1012.8mb 81f
8:24am 16 20 mph 1012.7mb 81f
8:18am 16 20 mph 1012.7mb 81f
8:12am 16 20 mph 1012.7mb 81f
8:06am 15 22 mph 1012.6mb 81f
8:00am 17 22 mph 1012.6mb 81f
7:54am 17 20 mph 1012.5mb 81f
7:48am 17 21 mph 1012.4mb 81f
7:42am 17 22 mph 1012.3mb 81f
7:36am 17 20 mph 1012.3mb 81f
7:30am 16 18 mph 1012.4mb 81f
7:24am 17 21 mph 1012.3mb 81f
7:18am 15 17 mph 1012.3mb 81f
7:12am 16 18 mph 1012.3mb 81f
7:06am 15 18 mph 1012.2mb 81f
7:00am 15 18 mph 1012mb 81f
6:54am 15 17 mph 1012mb 81f
6:48am 15 17 mph 1012mb 80f
6:42am 14 17 mph 1012mb 80f
6:36am 15 17 mph 1011.9mb 80f
6:30am 16 20 mph 1011.8mb 80f
6:24am 15 20 mph 1011.7mb 81f
6:18am 17 21 mph 1011.6mb 80f
6:12am 16 20 mph 1011.5mb 80f
6:06am 15 17 mph 1011.5mb 81f
6:00am 15 18 mph 1011.5mb 81f
5:54am 16 20 mph 1011.5mb 81f
5:48am 16 18 mph 1011.6mb 81f
5:42am 15 17 mph 1011.5mb 81f
5:36am 15 20 mph 1011.5mb 81f
5:30am 16 20 mph 1011.5mb 81f
5:24am 15 21 mph 1011.5mb 81f
5:18am 15 22 mph 1011.5mb 81f
5:12am 16 20 mph 1011.5mb 81f
5:06am 17 20 mph 1011.6mb 81f
5:00am 17 21 mph 1011.6mb 81f
4:54am 16 22 mph 1011.5mb 81f
4:48am 18 24 mph 1011.6mb 81f
4:42am 18 22 mph 1011.6mb 81f
4:36am 16 21 mph 1011.7mb 81f
4:30am 16 20 mph 1011.7mb 81f
4:24am 16 18 mph 1011.7mb 81f
4:18am 15 21 mph 1011.7mb 81f
4:12am 17 21 mph 1011.7mb 81f
4:06am 15 18 mph 1011.6mb 81f
4:00am 16 20 mph 1011.7mb 81f
3:54am 18 22 mph 1011.7mb 81f
3:48am 16 20 mph 1011.7mb 81f
3:42am 16 20 mph 1011.7mb 81f
3:36am 17 20 mph 1011.7mb 81f
3:30am 18 21 mph 1011.8mb 81f
3:24am 16 21 mph 1012mb 81f
3:18am 20 21 mph 1012.1mb 81f
3:12am 18 23 mph 1012.2mb 81f
3:06am 18 22 mph 1012.2mb 81f
3:00am 18 24 mph 1012.3mb 81f
2:54am 18 22 mph 1012.3mb 81f
2:48am 20 24 mph 1012.2mb 81f
2:42am 18 21 mph 1012.3mb 81f
2:36am 17 22 mph 1012.4mb 82f
2:30am 20 23 mph 1012.4mb 81f
2:24am 18 23 mph 1012.5mb 81f
2:18am 17 21 mph 1012.5mb 81f
2:12am 18 23 mph 1012.5mb 81f
2:06am 18 22 mph 1012.5mb 81f
2:00am 20 22 mph 1012.4mb 81f
1:54am 16 22 mph 1012.3mb 81f
1:48am 16 22 mph - -
1:42am 20 24 mph - -
1:36am 18 22 mph - -
1:30am 18 24 mph 1012.2mb 81f
1:24am 20 25 mph 1012.1mb 81f
1:18am 18 23 mph 1012.1mb 81f
1:12am 18 24 mph 1012.1mb 81f
1:06am 20 25 mph 1012.1mb 81f
1:00am 22 25 mph 1012.1mb 81f
12:54am 20 23 mph 1012.2mb 81f
12:48am 20 23 mph 1012.3mb 81f
12:42am 18 24 mph 1012.3mb 81f
12:36am 18 22 mph 1012.3mb 81f
12:30am 17 22 mph 1012.4mb 81f
12:24am 21 23 mph 1012.4mb 81f
12:18am 17 22 mph 1012.4mb 81f
12:12am 17 21 mph 1012.4mb 81f
12:06am 18 22 mph 1012.3mb 81f
12:00am 18 22 mph 1012.3mb 81f
Fri 05/26 11:54pm 18 22 mph 1012.2mb 81f
11:48pm 18 23 mph 1012.3mb 81f
11:42pm 17 21 mph 1012.3mb 81f
11:36pm 20 23 mph 1012.2mb 81f
11:30pm 20 24 mph 1012.2mb 81f
11:24pm 18 23 mph 1012.1mb 81f
11:18pm 21 23 mph 1012.1mb 81f
11:12pm 20 24 mph 1012mb 81f
11:06pm 20 23 mph 1012mb 81f
11:00pm 17 22 mph 1012mb 81f
10:54pm 18 24 mph 1012mb 81f
10:48pm 20 23 mph 1012mb 81f
10:42pm 18 25 mph 1011.9mb 81f
10:36pm 22 25 mph 1011.8mb 81f
10:30pm 20 24 mph 1011.8mb 81f
10:24pm 18 23 mph 1011.7mb 81f
10:18pm 18 22 mph 1011.6mb 81f
10:12pm 17 21 mph 1011.5mb 81f
10:06pm 17 21 mph 1011.4mb 81f
10:00pm 16 20 mph 1011.4mb 81f
9:54pm 17 21 mph 1011.3mb 81f
9:48pm 17 20 mph 1011.2mb 81f
9:42pm 16 21 mph 1011.1mb 81f
9:36pm 17 22 mph 1010.9mb 81f
9:30pm 17 21 mph 1010.9mb 81f
9:24pm 20 22 mph 1010.8mb 81f
9:18pm 18 22 mph 1010.8mb 81f
9:12pm 16 21 mph 1010.7mb 81f
9:06pm 20 23 mph 1010.6mb 81f
9:00pm 18 22 mph 1010.5mb 81f
8:54pm 17 21 mph 1010.5mb 81f
8:48pm 20 23 mph 1010.5mb 81f
8:42pm 17 21 mph 1010.4mb 81f
8:36pm 16 22 mph 1010.3mb 81f
8:30pm 17 22 mph 1010.3mb 81f
8:24pm 17 23 mph 1010.2mb 81f
8:18pm 18 22 mph 1010.2mb 81f
8:12pm 17 21 mph 1010.1mb 82f
8:06pm 18 22 mph 1010mb 82f
8:00pm 18 22 mph 1009.9mb 82f
7:54pm 17 21 mph 1009.9mb 82f
7:48pm 17 20 mph 1009.8mb 82f
7:42pm 16 20 mph 1009.8mb 82f
7:36pm 16 21 mph 1009.8mb 82f
7:30pm 17 22 mph 1009.8mb 82f
7:24pm 17 21 mph 1009.8mb 82f
7:18pm 16 20 mph 1009.9mb 82f
7:12pm 16 20 mph 1009.9mb 82f
7:06pm 18 22 mph 1009.9mb 82f
7:00pm 16 20 mph 1009.9mb 82f
6:54pm 16 18 mph 1009.9mb 82f
6:48pm 16 22 mph 1009.8mb 82f
6:42pm 17 21 mph 1009.8mb 82f
6:36pm 16 20 mph 1009.8mb 82f
6:30pm 16 20 mph 1009.7mb 82f
6:24pm 16 20 mph 1009.7mb 82f
6:18pm 15 18 mph 1009.7mb 82f
6:12pm 15 18 mph 1009.7mb 82f
6:06pm 16 17 mph 1009.8mb 82f
6:00pm 15 20 mph 1009.8mb 82f
5:54pm 14 20 mph 1009.8mb 82f
5:48pm 17 20 mph 1009.8mb 82f
5:42pm 15 18 mph 1009.9mb 82f
5:36pm 15 18 mph 1009.8mb 82f
5:30pm 16 20 mph 1009.9mb 82f
5:24pm 16 20 mph 1010mb 82f
5:18pm 17 20 mph 1009.9mb 82f
5:12pm 16 18 mph 1010mb 82f
5:06pm 15 20 mph 1010mb 82f
5:00pm 17 21 mph 1010.1mb 82f
4:54pm 16 21 mph 1010.1mb 82f
4:48pm 18 21 mph 1010.1mb 82f
4:42pm 17 20 mph 1010.1mb 82f
4:36pm 15 18 mph 1010.1mb 82f
4:30pm 15 20 mph 1010.1mb 82f
4:24pm 18 21 mph 1010.2mb 82f
4:18pm 17 21 mph 1010.2mb 82f
4:12pm 16 20 mph 1010.3mb 82f
4:06pm 17 21 mph 1010.2mb 82f
4:00pm 18 22 mph 1010.2mb 82f
3:54pm 18 23 mph 1010.2mb 82f
3:48pm 20 23 mph 1010.2mb 82f
3:42pm 18 22 mph 1010.3mb 82f
3:36pm 18 22 mph 1010.3mb 82f
3:30pm 18 22 mph 1010.3mb 82f
3:24pm 18 23 mph 1010.3mb 82f
3:18pm 18 22 mph 1010.3mb 82f
3:12pm 18 23 mph 1010.3mb 82f
3:06pm 21 23 mph 1010.4mb 82f
3:00pm 18 24 mph 1010.5mb 82f
2:54pm 18 24 mph 1010.5mb 83f
2:48pm 22 25 mph 1010.5mb 82f
2:42pm 20 25 mph 1010.5mb 82f
2:36pm 20 23 mph 1010.6mb 82f
2:30pm 20 24 mph 1010.6mb 82f
2:24pm 22 24 mph 1010.7mb 82f
2:18pm 20 24 mph 1010.8mb 82f
2:12pm 21 25 mph 1010.8mb 82f
2:06pm 18 25 mph 1010.8mb 82f
2:00pm 21 25 mph 1010.7mb 82f
1:54pm 21 26 mph 1010.8mb 82f
1:48pm 21 26 mph 1010.8mb 82f
1:42pm 20 28 mph 1010.8mb 82f
1:36pm 22 28 mph 1010.8mb 82f
1:30pm 22 28 mph 1010.8mb 82f
1:24pm 22 29 mph 1010.9mb 82f
1:18pm 21 25 mph 1010.9mb 82f
1:12pm 24 29 mph 1011mb 82f
1:06pm 22 28 mph 1011mb 82f
1:00pm 23 29 mph 1011mb 82f
12:54pm 23 30 mph 1011mb 82f
12:48pm 22 29 mph 1011.1mb 82f
12:42pm 23 28 mph 1011.2mb 83f
12:36pm 22 28 mph 1011.1mb 83f
12:30pm 23 29 mph 1011.1mb 82f
12:24pm 25 29 mph 1011.1mb 82f
12:18pm 21 29 mph 1011.2mb 83f
12:12pm 24 30 mph 1011mb 82f
12:06pm 24 29 mph 1011mb 82f
12:00pm 23 29 mph 1010.9mb 82f
11:54am 25 30 mph 1010.9mb 82f
11:48am 23 29 mph 1010.8mb 82f
11:42am 26 32 mph 1010.6mb 82f
11:36am 26 33 mph 1010.6mb 82f
11:30am 24 32 mph 1010.6mb 82f
11:24am 26 32 mph 1010.6mb 82f
11:18am 28 33 mph 1010.6mb 82f
11:12am 25 31 mph 1010.8mb 82f
11:06am 25 32 mph 1010.9mb 82f
11:00am 30 34 mph 1010.7mb 82f
10:54am 24 30 mph 1010.7mb 82f
10:48am 23 31 mph 1010.7mb 82f
10:42am 26 32 mph 1010.6mb 82f
10:36am 28 32 mph 1010.6mb 82f
10:30am 26 32 mph 1010.5mb 82f
10:24am 25 32 mph 1010.6mb 82f
10:18am 26 31 mph 1010.6mb 82f
10:12am 25 30 mph 1010.6mb 82f
10:06am 23 30 mph 1010.7mb 82f
10:00am 24 30 mph 1010.6mb 82f
9:54am 24 29 mph 1010.6mb 82f
9:48am 22 31 mph 1010.6mb 82f
9:42am 23 29 mph 1010.5mb 82f
9:36am 23 29 mph 1010.4mb 82f
9:30am 28 33 mph 1010.4mb 82f
9:24am 25 32 mph 1010.4mb 82f
9:18am 26 30 mph 1010.4mb 81f
9:12am 26 31 mph 1010.3mb 82f
9:06am 24 31 mph 1010.4mb 82f
9:00am 22 29 mph 1010.4mb 81f
8:54am 22 28 mph 1010.3mb 81f
8:48am 24 31 mph 1010.2mb 82f
8:42am 23 29 mph 1010.1mb 81f
8:36am 25 30 mph 1010.1mb 81f
8:30am 23 29 mph 1010.1mb 81f
8:24am 23 29 mph 1010mb 81f
8:18am 23 29 mph 1010mb 81f
8:12am 22 28 mph 1009.9mb 81f
8:06am 24 30 mph 1009.8mb 81f
8:00am 22 29 mph 1009.9mb 81f
7:54am 25 29 mph 1009.9mb 81f
7:48am 23 26 mph 1010mb 81f
7:42am 23 28 mph 1009.9mb 81f
7:36am 22 26 mph 1009.8mb 81f
7:30am 24 30 mph 1009.6mb 81f
7:24am 23 28 mph 1009.6mb 81f
7:18am 22 26 mph 1009.6mb 81f
7:12am 23 26 mph 1009.5mb 81f
7:06am 22 29 mph 1009.5mb 81f
7:00am 22 25 mph 1009.4mb 81f
6:54am 22 28 mph 1009.5mb 81f
6:48am 20 24 mph 1009.6mb 81f
6:42am 20 24 mph 1009.5mb 80f
6:36am 21 25 mph 1009.4mb 80f
6:30am 22 24 mph 1009.4mb 80f